Regional Weather Roundup
Issued by NWS

Home | Current Version | Previous Version | Graphics & Text | Print | Product List | Glossary On
Versions: 1 2 3 4 5 6 7 8 9 10 11 12 13 14 15 16 17 18 19 20 21 22 23 24 25 26 27 28 29 30 31 32 33 34 35 36 37 38 39 40 41 42 43 44 45 46 47 48 49 50
000
ASUS43 KMKX 070121
RWRWI

WISCONSIN REGIONAL WEATHER ROUNDUP
NATIONAL WEATHER SERVICE MILWAUKEE/SULLIVAN WI
800 PM CDT WED MAY 06 2015

NOTE: "FAIR" INDICATES FEW OR NO CLOUDS BELOW 12,000 FEET WITH NO
SIGNIFICANT WEATHER AND/OR OBSTRUCTIONS TO VISIBILITY.

WIZ001-002-006>008-014>016-023>028-070200-
NORTHWEST WISCONSIN

CITY           SKY/WX    TMP DP  RH WIND       PRES   REMARKS
SUPERIOR ARPT  CLOUDY    44  35  70 NE9       29.95S
ASHLAND        MOCLDY    51  44  77 NE8       29.96F
HAYWARD        MOCLDY    70  56  61 SE7       29.95R
SIREN          DRIZZLE   72  55  55 SE15G23   29.91R
CUMBERLAND     LGT RAIN  64  55  72 S12       29.94S
RICE LAKE      RAIN      68  60  74 S3        29.95S
CHETEK         LGT RAIN  70  59  68 SE6       29.94S
LADYSMITH      CLOUDY    71  58  64 SE10      29.99S
EAU CLAIRE     RAIN      64  60  87 S12       29.96R
MENOMONIE      RAIN      64  62  94 SE9       29.95S
NEW RICHMOND   CLOUDY    64  60  88 SE10      29.91F
OSCEOLA        CLOUDY    66  60  82 SE17G23   29.92F
$$

WIZ003>005-009-010-017-018-070200-
NORTH CENTRAL WISCONSIN

CITY           SKY/WX    TMP DP  RH WIND       PRES   REMARKS
MANITOWISH WTR PTCLDY    65  58  75 SE8       30.02S
ARBOR VITAE    MOCLDY    67  58  72 S7        30.03S
WOODRUFF       MOCLDY    67  58  72 S7        30.03S
RHINELANDER    CLOUDY    66  56  70 SE10      30.06R
EAGLE RIVER    MOCLDY    66  54  65 S7        30.05R
LAND O LAKES   MOCLDY    66  53  61 SE3       30.05S
PHILLIPS       CLOUDY    66  58  75 SE8       30.00S
TOMAHAWK       CLOUDY    64  56  75 SE5       30.04S
MEDFORD        MOCLDY    67  57  71 SE12      30.01S
MERRILL        CLOUDY    66  59  77 SE9       30.04S
$$

WIZ029-030-035-036-043>047-070200-
CENTRAL WISCONSIN

CITY           SKY/WX    TMP DP  RH WIND       PRES   REMARKS
WAUSAU         MOCLDY    67  57  70 SE10      30.02S
MOSINEE        CLEAR     66  57  72 SE8       30.04S
MARSHFIELD     CLOUDY    69  58  67 SE10      30.00F
STEVENS POINT  MOCLDY    65  56  72 E6        30.04S
WAUPACA        PTCLDY    66  57  72 E5        30.05S
WAUTOMA        PTCLDY    70  60  70 E8        30.04S
WISC RAPIDS    MOCLDY    70  56  61 SE8       30.02F
CAMP DOUGLAS   CLOUDY    72  66  83 E12       29.97F
$$

WIZ011>013-019>022-031-037>040-048>050-070200-
NORTHEAST WISCONSIN

CITY           SKY/WX    TMP DP  RH WIND       PRES   REMARKS
ANTIGO         CLOUDY    62  56  82 SE12      30.07S
SHAWANO        MOCLDY    64  56  76 E7        30.08S
OCONTO         MOCLDY    57  54  89 SE7       30.09S
STURGEON BAY   MOCLDY    52  39  62 SE5       30.13R
GREEN BAY      PTCLDY    64  56  75 SE8       30.08S HAZE
MANITOWOC        N/A    N/A N/A N/A MISG        N/A
APPLETON       PTCLDY    64  55  72 SE9       30.07F
CLINTONVILLE   MOCLDY    64  55  72 E6        30.06S
OSHKOSH        MOCLDY    65  56  72 SE7       30.06S
$$

WIZ032>034-041-042-053>061-070200-
SOUTHWEST WISCONSIN

CITY           SKY/WX    TMP DP  RH WIND       PRES   REMARKS
LA CROSSE      LGT RAIN  67  62  84 SE8       29.95S
SPARTA         CLOUDY    73  59  62 SE9       29.96F
VIROQUA        CLOUDY    66  60  81 S8        29.98F
BOSCOBEL       CLOUDY    72  58  61 SW9       29.99R
PRAIRIE DU CHI LGT RAIN  67  59  73 S6        29.97F
PLATTEVILLE    MOCLDY    69  60  71 SW9       30.01S
$$

WIZ056-057-062-063-064-067-068-070200-
SOUTH CENTRAL WISCONSIN

CITY           SKY/WX    TMP DP  RH WIND       PRES   REMARKS
REEDSBURG      PTCLDY    71  63  75 E6        29.99S
BARABOO/DELLS  PTCLDY    70  60  70 E8        30.00F
LONE ROCK      MOCLDY    74  57  55 SE8       29.97F
MINERAL POINT  MOCLDY    73  54  49 SW16G23   30.01R
MADISON        MOCLDY    71  61  70 SE10      30.02S
MIDDLETON      PTCLDY    72  61  67 SE10      30.02S
WATERTOWN      PTCLDY    64  57  79 E7        30.04S
MONROE         MOCLDY    70  55  60 SE8       30.01S
JANESVILLE     PTCLDY    70  61  73 E13       30.02F HAZE
$$

WIZ051-052-058>065-066-070>072-070200-
SOUTHEAST WISCONSIN

CITY           SKY/WX    TMP DP  RH WIND       PRES   REMARKS
MILWAUKEE      FOG       47  44  90 NE6       30.10R VSB 1/4
WAUKESHA       MOCLDY    59  54  82 E6        30.09S
MILWAUKEE/TIMM CLEAR     52  66 100 E5        30.09S HAZE
RACINE         FOG       46  45  96 N6        30.10S VSB 1/4
BURLINGTON     PTCLDY    59  55  85 E8        30.08R FOG
KENOSHA        FOG       52  51  97 E5        30.08S VSB 1/2
FOND DU LAC    MOCLDY    63  55  75 SE9       30.06S
SHEBOYGAN      MOCLDY    49  46  90 E5        30.10S
WEST BEND      MOCLDY    55  52  88 E5        30.08S FOG
JUNEAU         MOCLDY    63  56  79 E10       30.07R
$$

LSZ147-162-070200-
LAKE SUPERIOR

STATION/POSITION TIME  TEMP    WIND        PRES    WAVE
                       AIR SEA DIR/SP/G            HT/PER
                 (UTC) (F)     (DEG/KT/KT) (MB)    (FT/S)
W MID LAKE BUOY  0050   39 35   40/ 10/ 12 1016.2F   1/ 3
DEVILS ISLAND    0100   41      60/  9/ 10 1015.7F
PORT WING        0000   42      30/ 18/ 21 1014.6F
SAXON HARBOR     0000   47        CALM     1014.9F
$$

LMZ867-665-643>646-070200-
LAKE MICHIGAN

STATION/POSITION TIME  TEMP    WIND        PRES    WAVE
                       AIR SEA DIR/SP/G            HT/PER
                 (UTC) (F)     (DEG/KT/KT) (MB)    (FT/S)
CHAMBERS ISLAND  0000   51     320/  3/  4 1019.6S
NORTHPORT PIER   0000   45     130/  5/  7 1019.6F
SISTER BAY       0017   55     110/  2/  5   N/A
KEWAUNEE LAKESHO 0000   44      60/  2/  5 1018.8F
SHEBOYGAN LAKESH 0100   43      CALM  /  2 1020.2S
PORT WASHINGTON  0040   45      60/  4/  5 1019.6F
ATWATER BUOY     0100   42      50/  6/  6 1020.2F
MILWAUKEE LAKESH 0100   43      40/  7/  8   N/A
KENOSHA   LAKESH 0100   45      10/  5/  6 1018.6S
$$

TC  - TEMPERATURE IN CELSIUS
VSB - VISIBILITY IN STATUTE MILES
WCI - WIND CHILL INDEX
HX  - HEAT INDEX



USA.gov is the U.S. government's official web portal to all federal, state and local government web resources and services.